M I D A S
Marine Information and Data Acquisition System
Tripno 959 of the Zeeleeuw from 2005-09-21 06:41:11 to 2005-09-21 13:26:59
Back to CruiseResearch ActivitiesStationsMapUnderway DataData graphs

EquipmentUnitsComments
TimeDGPSUTC
LatitudeDGPSDM.mWGS84
LongitudeDGPSDM.mWGS84
SpeedMeteo Stationm/sRelative wind speed
DirectionMeteo StationdegRelative wind direction
TemperatureMeteo Stationdeg CelciusAir temperature
PressureMeteo StationPaAtmospheric pressure
HumidityMeteo Station%Relative humidity
Missing or incorrect values are displayed as -999
Metereological data collected by the RV Zeeleeuw from 2005-09-21 06:38:15 to 2005-09-21 13:37:02
                                                                                    Next 1000 lines
Time Latitude Longitude Speed Direction Temperature Pressure Humidity
2005-09-21 06:38:25 51°13.604 2°56.09 -999 66 12.2 102400 98
2005-09-21 06:38:30 51°13.605 2°56.085 -999 76 12.3 102410 98
2005-09-21 06:38:35 51°13.607 2°56.08 -999 82 12.3 102410 98
2005-09-21 06:38:40 51°13.608 2°56.074 -999 101 12.3 102400 98
2005-09-21 06:38:45 51°13.611 2°56.068 -999 123 12.3 102400 98
2005-09-21 06:38:51 51°13.613 2°56.061 -999 132 12.2 102400 98
2005-09-21 06:38:56 51°13.615 2°56.054 -999 139 12.2 102400 98
2005-09-21 06:39:01 51°13.617 2°56.047 -999 139 12.3 102400 98
2005-09-21 06:39:05 51°13.619 2°56.04 -999 139 12.3 102400 98
2005-09-21 06:39:10 51°13.621 2°56.033 -999 138 12.3 102400 98
2005-09-21 06:39:15 51°13.623 2°56.025 -999 135 12.3 102400 98
2005-09-21 06:39:20 51°13.625 2°56.018 -999 134 12.3 102400 98
2005-09-21 06:39:25 51°13.627 2°56.009 -999 133 12.3 102400 98
2005-09-21 06:39:30 51°13.63 2°56 -999 150 12.3 102400 98
2005-09-21 06:39:35 51°13.632 2°55.992 -999 150 12.3 102400 98
2005-09-21 06:39:41 51°13.634 2°55.983 -999 148 12.2 102400 98
2005-09-21 06:39:45 51°13.636 2°55.975 -999 150 12.2 102400 98
2005-09-21 06:39:50 51°13.638 2°55.966 -999 153 12.3 102400 98
2005-09-21 06:39:55 51°13.641 2°55.957 -999 155 12.3 102400 98
2005-09-21 06:40:01 51°13.644 2°55.948 -999 156 12.2 102400 98
2005-09-21 06:40:05 51°13.646 2°55.94 -999 154 12.2 102400 98
2005-09-21 06:40:11 51°13.649 2°55.93 -999 153 12.2 102410 98
2005-09-21 06:40:15 51°13.652 2°55.921 -999 151 12.2 102410 98
2005-09-21 06:40:20 51°13.655 2°55.912 -999 146 12.2 102400 98
2005-09-21 06:40:25 51°13.659 2°55.903 -999 147 12.2 102400 98
2005-09-21 06:40:31 51°13.662 2°55.893 -999 141 12.2 102400 98
2005-09-21 06:40:35 51°13.665 2°55.886 -999 142 12.2 102400 98
2005-09-21 06:40:40 51°13.668 2°55.877 -999 142 12.2 102410 98
2005-09-21 06:40:45 51°13.671 2°55.868 -999 141 12.2 102410 98
2005-09-21 06:40:51 51°13.674 2°55.859 -999 140 12.2 102400 98
2005-09-21 06:40:55 51°13.677 2°55.851 -999 140 12.2 102400 98
2005-09-21 06:41:00 51°13.68 2°55.843 -999 132 12.2 102410 98
2005-09-21 06:41:05 51°13.683 2°55.835 -999 132 12.2 102410 98
2005-09-21 06:41:11 51°13.686 2°55.825 -999 132 12.2 102410 98
2005-09-21 06:41:15 51°13.688 2°55.818 -999 139 12.2 102410 98
2005-09-21 06:41:21 51°13.691 2°55.808 -999 162 12.2 102410 98
2005-09-21 06:41:25 51°13.692 2°55.802 -999 160 12.2 102410 98
2005-09-21 06:41:31 51°13.695 2°55.792 -999 160 12.2 102410 98
2005-09-21 06:41:35 51°13.697 2°55.785 -999 156 12.2 102410 98
2005-09-21 06:41:41 51°13.699 2°55.777 -999 153 12.2 102410 98
2005-09-21 06:41:45 51°13.7 2°55.77 -999 139 12.2 102410 98
2005-09-21 06:41:49 51°13.701 2°55.765 -999 139 12.2 102410 98
2005-09-21 06:41:55 51°13.703 2°55.756 -999 149 12.2 102410 98
2005-09-21 06:41:59 51°13.704 2°55.751 -999 145 12.2 102410 98
2005-09-21 06:42:05 51°13.705 2°55.746 -999 143 12.2 102410 98
2005-09-21 06:42:09 51°13.705 2°55.743 -999 140 12.2 102410 98
2005-09-21 06:42:15 51°13.706 2°55.741 -999 136 12.2 102410 98
2005-09-21 06:42:20 51°13.707 2°55.74 -999 116 12.2 102410 98
2005-09-21 06:42:25 51°13.708 2°55.741 -999 115 12.2 102410 98
2005-09-21 06:42:29 51°13.709 2°55.743 -999 107 12.2 102410 98
2005-09-21 06:42:35 51°13.711 2°55.745 -999 103 12.2 102410 98
2005-09-21 06:42:40 51°13.713 2°55.747 -999 91 12.2 102410 98
2005-09-21 06:42:45 51°13.716 2°55.749 -999 86 12.2 102410 98
2005-09-21 06:42:50 51°13.719 2°55.752 -999 93 12.2 102410 98
2005-09-21 06:42:55 51°13.721 2°55.752 -999 119 12.2 102410 98
2005-09-21 06:43:00 51°13.721 2°55.753 -999 157 12.2 102410 98
2005-09-21 06:43:05 51°13.721 2°55.752 -999 154 12.2 102410 98
2005-09-21 06:43:10 51°13.721 2°55.751 -999 168 12.2 102410 98
2005-09-21 06:43:15 51°13.719 2°55.749 -999 171 12.2 102410 98
2005-09-21 06:43:19 51°13.718 2°55.749 -999 172 12.2 102410 98
2005-09-21 06:43:25 51°13.717 2°55.747 -999 178 12.2 102410 98
2005-09-21 06:43:29 51°13.716 2°55.746 -999 173 12.3 102410 98
2005-09-21 06:43:35 51°13.715 2°55.745 -999 151 12.3 102410 98
2005-09-21 06:43:41 51°13.714 2°55.744 -999 157 12.3 102410 98
2005-09-21 06:43:45 51°13.714 2°55.743 -999 166 12.3 102410 98
2005-09-21 06:43:51 51°13.714 2°55.743 -999 168 12.3 102410 98
2005-09-21 06:43:56 51°13.715 2°55.742 -999 168 12.3 102410 98
2005-09-21 06:44:01 51°13.717 2°55.741 -999 168 12.3 102410 98
2005-09-21 06:44:05 51°13.719 2°55.74 -999 168 12.3 102410 98
2005-09-21 06:44:11 51°13.721 2°55.738 -999 168 12.3 102410 98
2005-09-21 06:44:16 51°13.724 2°55.736 -999 167 12.3 102410 98
2005-09-21 06:44:20 51°13.726 2°55.734 -999 157 12.3 102410 98
2005-09-21 06:44:25 51°13.73 2°55.731 -999 156 12.3 102410 98
2005-09-21 06:44:30 51°13.733 2°55.729 -999 156 12.3 102410 98
2005-09-21 06:44:35 51°13.738 2°55.725 -999 156 12.3 102410 98
2005-09-21 06:44:40 51°13.741 2°55.722 -999 156 12.3 102410 98
2005-09-21 06:44:45 51°13.746 2°55.717 -999 106 12.3 102410 98
2005-09-21 06:44:49 51°13.751 2°55.713 -999 31 12.3 102410 98
2005-09-21 06:44:56 51°13.758 2°55.707 -999 27 12.3 102410 98
2005-09-21 06:45:00 51°13.762 2°55.702 -999 -999 12.3 102410 98
2005-09-21 06:45:05 51°13.768 2°55.696 -999 356 12.3 102410 98
2005-09-21 06:45:10 51°13.774 2°55.691 -999 346 12.3 102410 98
2005-09-21 06:45:16 51°13.781 2°55.684 -999 346 12.3 102410 98
2005-09-21 06:45:20 51°13.787 2°55.678 -999 346 12.4 102410 98
2005-09-21 06:45:25 51°13.794 2°55.672 -999 352 12.4 102410 98
2005-09-21 06:45:31 51°13.801 2°55.665 -999 353 12.4 102410 98
2005-09-21 06:45:35 51°13.808 2°55.659 -999 353 12.4 102410 98
2005-09-21 06:45:40 51°13.815 2°55.653 -999 352 12.4 102410 98
2005-09-21 06:45:45 51°13.822 2°55.646 -999 354 12.4 102410 98
2005-09-21 06:45:50 51°13.83 2°55.639 -999 6 12.4 102410 98
2005-09-21 06:45:55 51°13.838 2°55.632 -999 16 12.4 102410 98
2005-09-21 06:46:00 51°13.845 2°55.626 -999 356 12.4 102410 98
2005-09-21 06:46:05 51°13.853 2°55.619 -999 11 12.4 102410 98
2005-09-21 06:46:10 51°13.86 2°55.613 -999 18 12.4 102410 98
2005-09-21 06:46:16 51°13.87 2°55.606 -999 14 12.4 102410 98
2005-09-21 06:46:20 51°13.878 2°55.6 -999 18 12.4 102410 98
2005-09-21 06:46:25 51°13.886 2°55.593 -999 13 12.4 102410 98
2005-09-21 06:46:30 51°13.895 2°55.587 -999 17 12.4 102410 98
2005-09-21 06:46:36 51°13.904 2°55.58 -999 17 12.4 102410 98
2005-09-21 06:46:40 51°13.911 2°55.574 -999 17 12.4 102410 98
2005-09-21 06:46:45 51°13.92 2°55.567 -999 14 12.4 102410 98
2005-09-21 06:46:50 51°13.928 2°55.56 -999 15 12.4 102410 98
2005-09-21 06:46:55 51°13.937 2°55.553 -999 15 12.4 102410 98
2005-09-21 06:47:00 51°13.945 2°55.547 -999 11 12.4 102410 98
2005-09-21 06:47:05 51°13.954 2°55.54 -999 11 12.4 102410 98
2005-09-21 06:47:11 51°13.964 2°55.532 -999 15 12.5 102410 98
2005-09-21 06:47:15 51°13.971 2°55.526 -999 22 12.5 102410 98
2005-09-21 06:47:20 51°13.979 2°55.52 -999 8 12.5 102410 98
2005-09-21 06:47:25 51°13.988 2°55.512 -999 8 12.5 102410 98
2005-09-21 06:47:29 51°13.995 2°55.507 -999 8 12.5 102410 98
2005-09-21 06:47:36 51°14.006 2°55.498 -999 8 12.5 102410 98
2005-09-21 06:47:40 51°14.014 2°55.491 -999 8 12.5 102410 98
2005-09-21 06:47:45 51°14.023 2°55.484 -999 10 12.5 102410 98
2005-09-21 06:47:51 51°14.032 2°55.477 -999 10 12.5 102410 98
2005-09-21 06:47:55 51°14.04 2°55.471 -999 10 12.5 102410 98
2005-09-21 06:48:00 51°14.049 2°55.465 -999 9 12.5 102410 98
2005-09-21 06:48:05 51°14.058 2°55.459 -999 9 12.5 102410 98
2005-09-21 06:48:09 51°14.065 2°55.454 -999 9 12.5 102410 98
2005-09-21 06:48:16 51°14.076 2°55.447 -999 9 12.5 102410 98
2005-09-21 06:48:20 51°14.085 2°55.442 -999 12 12.5 102410 98
2005-09-21 06:48:25 51°14.093 2°55.436 -999 13 12.5 102410 98
2005-09-21 06:48:29 51°14.101 2°55.431 -999 13 12.5 102410 98
2005-09-21 06:48:35 51°14.111 2°55.424 -999 14 12.5 102410 98
2005-09-21 06:48:40 51°14.119 2°55.419 -999 16 12.5 102410 98
2005-09-21 06:48:45 51°14.129 2°55.413 -999 17 12.5 102410 98
2005-09-21 06:48:50 51°14.137 2°55.407 -999 17 12.5 102410 98
2005-09-21 06:48:55 51°14.147 2°55.4 -999 18 12.5 102410 98
2005-09-21 06:49:00 51°14.154 2°55.395 -999 18 12.5 102410 98
2005-09-21 06:49:05 51°14.164 2°55.387 -999 18 12.5 102410 98
2005-09-21 06:49:09 51°14.171 2°55.382 -999 18 12.6 102410 98
2005-09-21 06:49:15 51°14.181 2°55.373 -999 18 12.6 102410 98
2005-09-21 06:49:20 51°14.189 2°55.366 -999 18 12.6 102410 98
2005-09-21 06:49:25 51°14.197 2°55.358 -999 18 12.6 102410 98
2005-09-21 06:49:31 51°14.207 2°55.349 -999 18 12.6 102410 98
2005-09-21 06:49:35 51°14.214 2°55.341 -999 17 12.6 102410 98
2005-09-21 06:49:40 51°14.22 2°55.333 -999 9 12.6 102410 98
2005-09-21 06:49:45 51°14.229 2°55.322 -999 9 12.6 102410 98
2005-09-21 06:49:50 51°14.237 2°55.313 -999 5 12.6 102410 98
2005-09-21 06:49:55 51°14.245 2°55.302 -999 -999 12.6 102410 98
2005-09-21 06:50:00 51°14.252 2°55.292 -999 352 12.6 102410 98
2005-09-21 06:50:05 51°14.262 2°55.28 -999 352 12.6 102410 98
2005-09-21 06:50:10 51°14.27 2°55.267 -999 351 12.6 102410 98
2005-09-21 06:50:15 51°14.278 2°55.253 -999 350 12.6 102410 98
2005-09-21 06:50:20 51°14.286 2°55.24 -999 343 12.6 102410 98
2005-09-21 06:50:25 51°14.295 2°55.223 -999 341 12.6 102410 98
2005-09-21 06:50:29 51°14.301 2°55.211 -999 347 12.7 102410 98
2005-09-21 06:50:36 51°14.312 2°55.19 -999 352 12.7 102410 98
2005-09-21 06:50:40 51°14.319 2°55.177 -999 352 12.7 102410 98
2005-09-21 06:50:45 51°14.328 2°55.158 -999 349 12.7 102410 98
2005-09-21 06:50:50 51°14.335 2°55.143 -999 2 12.7 102410 98
2005-09-21 06:50:55 51°14.344 2°55.125 -999 357 12.7 102410 98
2005-09-21 06:51:00 51°14.352 2°55.11 -999 346 12.7 102410 98
2005-09-21 06:51:05 51°14.361 2°55.091 -999 348 12.7 102410 98
2005-09-21 06:51:10 51°14.368 2°55.075 -999 343 12.7 102410 98
2005-09-21 06:51:15 51°14.377 2°55.056 -999 344 12.7 102410 98
2005-09-21 06:51:20 51°14.386 2°55.038 -999 342 12.8 102400 98
2005-09-21 06:51:25 51°14.394 2°55.021 -999 345 12.7 102410 98
2005-09-21 06:51:31 51°14.403 2°55 -999 352 12.7 102410 98
2005-09-21 06:51:35 51°14.41 2°54.984 -999 352 12.7 102410 98
2005-09-21 06:51:40 51°14.416 2°54.966 -999 334 12.8 102410 98
2005-09-21 06:51:45 51°14.424 2°54.945 -999 334 12.8 102410 98
2005-09-21 06:51:50 51°14.432 2°54.924 -999 327 12.8 102410 98
2005-09-21 06:51:55 51°14.441 2°54.905 -999 324 12.8 102410 98
2005-09-21 06:52:00 51°14.45 2°54.887 -999 352 12.8 102410 98
2005-09-21 06:52:05 51°14.462 2°54.867 -999 348 12.8 102410 98
2005-09-21 06:52:09 51°14.471 2°54.853 -999 354 12.8 102400 98
2005-09-21 06:52:15 51°14.487 2°54.831 -999 357 12.8 102400 98
2005-09-21 06:52:20 51°14.498 2°54.816 -999 358 12.8 102400 98
2005-09-21 06:52:25 51°14.513 2°54.798 -999 358 12.8 102400 98
2005-09-21 06:52:31 51°14.529 2°54.78 -999 5 12.8 102410 98
2005-09-21 06:52:36 51°14.543 2°54.763 -999 10 12.8 102410 98
2005-09-21 06:52:40 51°14.555 2°54.75 -999 6 12.8 102410 98
2005-09-21 06:52:45 51°14.571 2°54.733 -999 9 12.8 102410 98
2005-09-21 06:52:50 51°14.585 2°54.719 -999 4 12.9 102400 98
2005-09-21 06:52:56 51°14.603 2°54.7 -999 12 12.9 102400 98
2005-09-21 06:53:00 51°14.615 2°54.688 -999 11 12.9 102410 98
2005-09-21 06:53:05 51°14.631 2°54.671 -999 10 12.9 102410 98
2005-09-21 06:53:10 51°14.647 2°54.655 -999 7 12.9 102410 98
2005-09-21 06:53:16 51°14.663 2°54.637 -999 11 12.9 102410 98
2005-09-21 06:53:20 51°14.677 2°54.623 -999 5 12.9 102410 98
2005-09-21 06:53:26 51°14.693 2°54.605 -999 8 12.9 102410 98
2005-09-21 06:53:31 51°14.708 2°54.588 -999 11 12.9 102410 98
2005-09-21 06:53:35 51°14.721 2°54.572 -999 7 12.9 102410 98
2005-09-21 06:53:40 51°14.734 2°54.555 -999 1 13 102410 98
2005-09-21 06:53:45 51°14.749 2°54.534 -999 1 13 102410 98
2005-09-21 06:53:50 51°14.763 2°54.514 -999 358 13 102410 98
2005-09-21 06:53:55 51°14.776 2°54.494 -999 1 13 102410 98
2005-09-21 06:54:00 51°14.789 2°54.476 -999 357 13 102410 98
2005-09-21 06:54:05 51°14.803 2°54.454 -999 359 13 102410 98
2005-09-21 06:54:11 51°14.818 2°54.432 -999 358 13 102410 98
2005-09-21 06:54:15 51°14.831 2°54.414 -999 358 13 102410 98
2005-09-21 06:54:20 51°14.843 2°54.397 -999 356 13 102410 98
2005-09-21 06:54:25 51°14.859 2°54.376 -999 359 13 102410 98
2005-09-21 06:54:29 51°14.87 2°54.361 -999 358 13.1 102410 98
2005-09-21 06:54:36 51°14.889 2°54.337 -999 360 13.1 102410 98
2005-09-21 06:54:40 51°14.901 2°54.32 -999 1 13.1 102410 98
2005-09-21 06:54:45 51°14.916 2°54.303 -999 357 13.1 102410 98
2005-09-21 06:54:51 51°14.932 2°54.283 -999 356 13.1 102410 98
2005-09-21 06:54:55 51°14.945 2°54.267 -999 357 13.1 102410 98
2005-09-21 06:55:00 51°14.959 2°54.249 -999 359 13.1 102410 98
2005-09-21 06:55:05 51°14.973 2°54.231 -999 360 13.1 102410 98
2005-09-21 06:55:10 51°14.988 2°54.213 -999 356 13.2 102410 97
2005-09-21 06:55:16 51°15.003 2°54.193 -999 356 13.2 102410 97
2005-09-21 06:55:20 51°15.017 2°54.177 -999 355 13.2 102410 97
2005-09-21 06:55:25 51°15.031 2°54.159 -999 359 13.2 102410 97
2005-09-21 06:55:30 51°15.045 2°54.141 -999 358 13.2 102410 97
2005-09-21 06:55:36 51°15.06 2°54.122 -999 354 13.2 102410 97
2005-09-21 06:55:40 51°15.072 2°54.108 -999 357 13.3 102410 97
2005-09-21 06:55:45 51°15.088 2°54.088 -999 2 13.3 102410 97
2005-09-21 06:55:50 51°15.103 2°54.072 -999 357 13.3 102410 97
2005-09-21 06:55:56 51°15.119 2°54.053 -999 -999 13.3 102410 97
2005-09-21 06:56:00 51°15.131 2°54.039 -999 353 13.3 102420 97
2005-09-21 06:56:05 51°15.147 2°54.02 -999 356 13.3 102420 97
2005-09-21 06:56:10 51°15.162 2°54.002 -999 355 13.3 102420 97
2005-09-21 06:56:15 51°15.176 2°53.983 -999 354 13.3 102420 97
2005-09-21 06:56:20 51°15.189 2°53.966 -999 352 13.4 102410 97
2005-09-21 06:56:26 51°15.206 2°53.943 -999 353 13.4 102410 97
2005-09-21 06:56:29 51°15.215 2°53.929 -999 356 13.4 102420 97
2005-09-21 06:56:36 51°15.234 2°53.905 -999 359 13.4 102420 97
2005-09-21 06:56:40 51°15.246 2°53.891 -999 2 13.4 102420 97
2005-09-21 06:56:45 51°15.263 2°53.872 -999 8 13.4 102420 97
2005-09-21 06:56:51 51°15.28 2°53.853 -999 6 13.5 102410 97
2005-09-21 06:56:55 51°15.294 2°53.838 -999 7 13.5 102410 97
2005-09-21 06:57:00 51°15.307 2°53.823 -999 6 13.5 102420 97
2005-09-21 06:57:05 51°15.325 2°53.805 -999 5 13.5 102420 97
2005-09-21 06:57:11 51°15.342 2°53.788 1.6 3 13.5 102420 97
2005-09-21 06:57:15 51°15.356 2°53.773 2.4 6 13.5 102420 97
2005-09-21 06:57:20 51°15.37 2°53.759 2.8 3 13.6 102420 97
2005-09-21 06:57:25 51°15.387 2°53.741 2.8 360 13.6 102420 97
2005-09-21 06:57:31 51°15.404 2°53.722 3.4 4 13.6 102410 97
2005-09-21 06:57:36 51°15.419 2°53.705 3.4 360 13.6 102410 97
2005-09-21 06:57:41 51°15.434 2°53.688 4.2 3 13.7 102420 97
2005-09-21 06:57:45 51°15.448 2°53.673 4.1 4 13.7 102420 97
2005-09-21 06:57:50 51°15.462 2°53.657 4.2 6 13.7 102420 97
2005-09-21 06:57:56 51°15.48 2°53.636 4 2 13.7 102420 97
2005-09-21 06:58:00 51°15.492 2°53.622 6 359 13.7 102420 97
2005-09-21 06:58:05 51°15.509 2°53.603 6.3 356 13.7 102420 97
2005-09-21 06:58:09 51°15.521 2°53.589 6.3 4 13.8 102420 97
2005-09-21 06:58:15 51°15.539 2°53.568 5.8 1 13.8 102420 97
2005-09-21 06:58:20 51°15.552 2°53.553 6.3 2 13.8 102420 97
2005-09-21 06:58:25 51°15.569 2°53.534 6.3 1 13.8 102420 97
2005-09-21 06:58:30 51°15.582 2°53.517 6.6 2 13.8 102420 97
2005-09-21 06:58:35 51°15.598 2°53.498 6.6 358 13.8 102420 97
2005-09-21 06:58:40 51°15.612 2°53.482 5 2 13.9 102420 97
2005-09-21 06:58:45 51°15.628 2°53.462 6.3 1 13.9 102420 97
2005-09-21 06:58:51 51°15.644 2°53.443 6.3 -999 13.9 102420 96
2005-09-21 06:58:55 51°15.658 2°53.428 6 5 13.9 102420 96
2005-09-21 06:59:00 51°15.671 2°53.412 6.4 2 13.9 102420 96
2005-09-21 06:59:05 51°15.688 2°53.395 6.6 2 13.9 102420 96
2005-09-21 06:59:09 51°15.7 2°53.383 5.8 352 14 102420 96
2005-09-21 06:59:16 51°15.721 2°53.362 5.9 354 14 102420 96
2005-09-21 06:59:20 51°15.733 2°53.351 5.2 351 14 102420 96
2005-09-21 06:59:25 51°15.751 2°53.335 4.5 358 14 102420 96
2005-09-21 06:59:31 51°15.768 2°53.319 5.3 357 14 102420 96
2005-09-21 06:59:36 51°15.784 2°53.305 5.4 3 14 102420 96
2005-09-21 06:59:41 51°15.8 2°53.291 5.5 3 14 102420 96
2005-09-21 06:59:45 51°15.815 2°53.278 5.6 356 14 102420 96
2005-09-21 06:59:49 51°15.827 2°53.266 5.3 349 14.1 102420 96
2005-09-21 06:59:55 51°15.846 2°53.249 6.1 355 14.1 102420 96
2005-09-21 07:00:00 51°15.86 2°53.235 6.6 356 14 102420 96
2005-09-21 07:00:05 51°15.877 2°53.219 5.9 360 14 102420 96
2005-09-21 07:00:09 51°15.889 2°53.207 5.6 354 14.1 102420 96
2005-09-21 07:00:15 51°15.908 2°53.188 5.9 353 14.1 102420 96
2005-09-21 07:00:20 51°15.922 2°53.175 5.6 351 14.2 102420 95
2005-09-21 07:00:25 51°15.939 2°53.158 4.4 351 14.2 102420 95
2005-09-21 07:00:29 51°15.951 2°53.146 5.2 354 14.2 102420 95
2005-09-21 07:00:35 51°15.97 2°53.128 5.2 352 14.2 102420 95
2005-09-21 07:00:40 51°15.984 2°53.115 5.6 348 14.2 102420 95
2005-09-21 07:00:45 51°16.002 2°53.099 5.9 348 14.2 102420 95
2005-09-21 07:00:49 51°16.014 2°53.087 5.8 346 14.2 102420 95
2005-09-21 07:00:55 51°16.033 2°53.071 5.8 347 14.2 102420 95
2005-09-21 07:01:00 51°16.048 2°53.059 4.6 346 14.2 102420 95
2005-09-21 07:01:06 51°16.067 2°53.044 4.4 347 14.2 102420 95
2005-09-21 07:01:09 51°16.079 2°53.036 5.9 349 14.2 102420 95
2005-09-21 07:01:15 51°16.098 2°53.022 5.8 352 14.2 102420 95
2005-09-21 07:01:20 51°16.113 2°53.011 5.7 353 14.3 102420 94
2005-09-21 07:01:25 51°16.131 2°52.998 5.9 348 14.3 102420 94
2005-09-21 07:01:29 51°16.144 2°52.988 6 350 14.2 102420 94
2005-09-21 07:01:35 51°16.164 2°52.973 6.5 346 14.2 102420 94
2005-09-21 07:01:40 51°16.179 2°52.962 6 347 14.3 102420 94
2005-09-21 07:01:45 51°16.196 2°52.949 6.1 347 14.3 102420 94
2005-09-21 07:01:50 51°16.211 2°52.938 5.4 347 14.3 102420 94
2005-09-21 07:01:56 51°16.231 2°52.923 6.1 349 14.3 102420 94
2005-09-21 07:02:00 51°16.246 2°52.912 6.3 351 14.3 102420 94
2005-09-21 07:02:05 51°16.262 2°52.9 5.6 347 14.3 102420 94
2005-09-21 07:02:09 51°16.275 2°52.89 6.5 350 14.3 102420 94
2005-09-21 07:02:16 51°16.297 2°52.874 6.1 356 14.3 102420 94
2005-09-21 07:02:20 51°16.31 2°52.864 5.9 356 14.3 102410 94
2005-09-21 07:02:25 51°16.329 2°52.851 5.9 353 14.3 102410 94
2005-09-21 07:02:30 51°16.344 2°52.84 5.6 352 14.4 102420 93
2005-09-21 07:02:35 51°16.363 2°52.827 6.1 352 14.4 102420 93
2005-09-21 07:02:40 51°16.378 2°52.817 5.4 351 14.4 102420 93
2005-09-21 07:02:45 51°16.397 2°52.805 5 352 14.4 102420 93
2005-09-21 07:02:49 51°16.411 2°52.796 5.5 352 14.4 102420 93
2005-09-21 07:02:55 51°16.432 2°52.783 5.3 356 14.4 102420 93
2005-09-21 07:03:00 51°16.449 2°52.772 5.2 357 14.4 102420 93
2005-09-21 07:03:05 51°16.466 2°52.761 5.4 353 14.4 102420 93
2005-09-21 07:03:09 51°16.48 2°52.752 4.7 354 14.4 102420 93
2005-09-21 07:03:15 51°16.501 2°52.738 5.2 352 14.4 102420 93
2005-09-21 07:03:20 51°16.518 2°52.727 5.1 351 14.4 102420 93
2005-09-21 07:03:25 51°16.535 2°52.716 4.9 348 14.4 102420 93
2005-09-21 07:03:29 51°16.549 2°52.706 5.6 349 14.4 102420 92
2005-09-21 07:03:36 51°16.571 2°52.692 5.7 356 14.4 102420 92
2005-09-21 07:03:40 51°16.585 2°52.683 5.4 354 14.4 102420 92
2005-09-21 07:03:45 51°16.604 2°52.671 5.6 356 14.4 102420 92
2005-09-21 07:03:51 51°16.623 2°52.66 5.4 356 14.4 102420 92
2005-09-21 07:03:56 51°16.64 2°52.65 5 355 14.4 102420 92
2005-09-21 07:04:00 51°16.656 2°52.641 3.8 356 14.5 102420 92
2005-09-21 07:04:05 51°16.673 2°52.631 4.9 358 14.5 102420 92
2005-09-21 07:04:10 51°16.689 2°52.622 5.4 355 14.4 102420 92
2005-09-21 07:04:16 51°16.71 2°52.609 5.4 355 14.4 102420 92
2005-09-21 07:04:20 51°16.724 2°52.601 5.3 355 14.5 102420 92
2005-09-21 07:04:25 51°16.742 2°52.59 3.9 354 14.5 102420 92
2005-09-21 07:04:30 51°16.759 2°52.58 4 352 14.5 102420 92
2005-09-21 07:04:36 51°16.778 2°52.569 5.4 350 14.5 102420 92
2005-09-21 07:04:40 51°16.792 2°52.561 4.3 350 14.5 102420 91
2005-09-21 07:04:45 51°16.811 2°52.551 5.3 351 14.5 102420 91
2005-09-21 07:04:49 51°16.825 2°52.543 4.1 354 14.5 102420 91
2005-09-21 07:04:56 51°16.848 2°52.531 5.2 353 14.5 102420 91
2005-09-21 07:05:00 51°16.862 2°52.523 4.9 356 14.5 102420 91
2005-09-21 07:05:05 51°16.881 2°52.513 5.1 349 14.5 102420 91
2005-09-21 07:05:10 51°16.896 2°52.504 4.8 352 14.5 102420 91
2005-09-21 07:05:15 51°16.916 2°52.493 5.7 352 14.5 102420 91
2005-09-21 07:05:20 51°16.931 2°52.485 5 357 14.5 102420 91
2005-09-21 07:05:25 51°16.95 2°52.474 5.2 1 14.5 102420 91
2005-09-21 07:05:31 51°16.969 2°52.463 5.4 356 14.5 102420 91
2005-09-21 07:05:36 51°16.987 2°52.454 3.9 354 14.5 102420 91
2005-09-21 07:05:40 51°17.001 2°52.446 4.5 353 14.5 102420 91
2005-09-21 07:05:45 51°17.02 2°52.437 4.8 355 14.5 102420 91
2005-09-21 07:05:49 51°17.034 2°52.429 5.1 355 14.6 102420 90
2005-09-21 07:05:56 51°17.057 2°52.418 4.5 356 14.6 102420 90
2005-09-21 07:06:00 51°17.071 2°52.41 4.8 358 14.6 102420 90
2005-09-21 07:06:05 51°17.09 2°52.399 5.2 356 14.6 102420 90
2005-09-21 07:06:10 51°17.106 2°52.39 5.1 351 14.6 102420 90
2005-09-21 07:06:15 51°17.125 2°52.379 5.2 350 14.6 102420 90
2005-09-21 07:06:20 51°17.14 2°52.369 4.6 350 14.6 102420 90
2005-09-21 07:06:25 51°17.159 2°52.357 4.7 350 14.6 102420 90
2005-09-21 07:06:30 51°17.177 2°52.346 4.7 351 14.6 102420 90
2005-09-21 07:06:36 51°17.196 2°52.334 4 355 14.6 102420 90
2005-09-21 07:06:40 51°17.21 2°52.326 5.2 352 14.6 102420 90
2005-09-21 07:06:45 51°17.229 2°52.315 5.2 356 14.6 102420 90
2005-09-21 07:06:49 51°17.243 2°52.307 5.2 354 14.6 102420 90
2005-09-21 07:06:56 51°17.266 2°52.295 5 356 14.6 102420 90
2005-09-21 07:07:00 51°17.282 2°52.287 3.6 356 14.6 102420 89
2005-09-21 07:07:05 51°17.3 2°52.277 4.9 354 14.6 102420 89
2005-09-21 07:07:10 51°17.317 2°52.267 5.2 359 14.6 102420 89
2005-09-21 07:07:15 51°17.334 2°52.257 5.2 356 14.6 102420 89
2005-09-21 07:07:20 51°17.352 2°52.247 5.2 357 14.6 102420 89
2005-09-21 07:07:25 51°17.369 2°52.237 5.3 354 14.6 102420 89
2005-09-21 07:07:29 51°17.383 2°52.228 5.1 355 14.6 102420 89
2005-09-21 07:07:36 51°17.406 2°52.214 5 350 14.6 102420 89
2005-09-21 07:07:40 51°17.42 2°52.206 5.3 356 14.6 102420 89
2005-09-21 07:07:45 51°17.438 2°52.194 5 353 14.6 102420 89
2005-09-21 07:07:51 51°17.457 2°52.182 3.6 356 14.6 102420 89
2005-09-21 07:07:56 51°17.473 2°52.169 3.7 349 14.6 102420 89
2005-09-21 07:08:00 51°17.486 2°52.156 5.7 355 14.7 102420 88
2005-09-21 07:08:05 51°17.502 2°52.137 4.5 349 14.7 102420 88
2005-09-21 07:08:11 51°17.517 2°52.114 5.7 351 14.7 102420 88
2005-09-21 07:08:15 51°17.527 2°52.094 5.9 346 14.7 102420 88
2005-09-21 07:08:20 51°17.537 2°52.072 6.1 350 14.7 102420 88
2005-09-21 07:08:25 51°17.547 2°52.044 5.5 346 14.7 102420 88
2005-09-21 07:08:29 51°17.553 2°52.023 6.6 349 14.7 102420 88
2005-09-21 07:08:36 51°17.564 2°51.988 6.6 345 14.7 102420 88
2005-09-21 07:08:40 51°17.57 2°51.963 7.1 345 14.7 102420 88
2005-09-21 07:08:45 51°17.577 2°51.934 6.5 342 14.7 102420 88
2005-09-21 07:08:51 51°17.584 2°51.903 6.9 342 14.7 102420 88
2005-09-21 07:08:55 51°17.589 2°51.877 6.3 342 14.7 102420 88
2005-09-21 07:09:00 51°17.595 2°51.851 5.7 343 14.7 102410 88
2005-09-21 07:09:05 51°17.601 2°51.819 6.3 339 14.7 102410 88
2005-09-21 07:09:09 51°17.606 2°51.796 5.7 343 14.7 102420 88
2005-09-21 07:09:15 51°17.614 2°51.761 6.1 342 14.7 102420 88
2005-09-21 07:09:20 51°17.619 2°51.735 5.9 347 14.7 102410 87
2005-09-21 07:09:25 51°17.627 2°51.704 5.4 341 14.7 102410 87
2005-09-21 07:09:31 51°17.635 2°51.673 5.2 344 14.7 102410 87
2005-09-21 07:09:36 51°17.643 2°51.645 5.6 347 14.7 102410 87
2005-09-21 07:09:41 51°17.65 2°51.617 5.7 344 14.7 102420 87
2005-09-21 07:09:45 51°17.657 2°51.592 5.7 341 14.7 102420 87
2005-09-21 07:09:49 51°17.663 2°51.569 5.9 346 14.7 102420 86
2005-09-21 07:09:56 51°17.673 2°51.533 6.1 347 14.7 102420 86
2005-09-21 07:10:00 51°17.679 2°51.51 5 348 14.7 102420 86
2005-09-21 07:10:05 51°17.688 2°51.479 4.8 348 14.7 102420 86
2005-09-21 07:10:10 51°17.694 2°51.453 5.3 350 14.7 102420 86
2005-09-21 07:10:15 51°17.703 2°51.422 6 343 14.7 102420 86
2005-09-21 07:10:20 51°17.709 2°51.397 6.7 346 14.7 102420 86
2005-09-21 07:10:25 51°17.718 2°51.366 6.1 350 14.7 102420 86
2005-09-21 07:10:31 51°17.727 2°51.335 5.6 342 14.8 102420 86
2005-09-21 07:10:36 51°17.736 2°51.307 5.7 342 14.8 102420 86
2005-09-21 07:10:40 51°17.743 2°51.285 5.4 347 14.8 102420 86
2005-09-21 07:10:45 51°17.752 2°51.254 6.4 348 14.8 102420 86
2005-09-21 07:10:50 51°17.76 2°51.229 6.7 347 14.8 102420 86
2005-09-21 07:10:56 51°17.771 2°51.196 5.8 347 14.8 102420 86
2005-09-21 07:11:00 51°17.778 2°51.174 7.2 348 14.8 102420 86
2005-09-21 07:11:05 51°17.788 2°51.143 6 345 14.8 102420 86
2005-09-21 07:11:09 51°17.795 2°51.121 5.7 348 14.8 102420 86
2005-09-21 07:11:16 51°17.805 2°51.084 5.3 349 14.8 102420 86
2005-09-21 07:11:20 51°17.812 2°51.061 5.9 349 14.9 102420 86
2005-09-21 07:11:25 51°17.82 2°51.03 6.4 350 14.9 102420 86
2005-09-21 07:11:29 51°17.827 2°51.006 6.1 347 14.9 102420 86
2005-09-21 07:11:35 51°17.837 2°50.972 6.1 342 14.9 102420 86
2005-09-21 07:11:40 51°17.844 2°50.946 6.5 346 14.9 102420 87
2005-09-21 07:11:45 51°17.853 2°50.914 6.8 349 14.9 102420 87
2005-09-21 07:11:49 51°17.859 2°50.891 6.6 346 14.9 102420 87
2005-09-21 07:11:55 51°17.869 2°50.856 6.6 343 14.9 102420 87
2005-09-21 07:12:00 51°17.877 2°50.831 5.8 346 14.9 102420 87
2005-09-21 07:12:05 51°17.886 2°50.8 6.2 343 14.9 102420 87
2005-09-21 07:12:09 51°17.893 2°50.778 5.6 344 14.9 102420 87
2005-09-21 07:12:15 51°17.903 2°50.744 5.4 346 14.9 102420 87
2005-09-21 07:12:20 51°17.911 2°50.718 5.8 347 14.9 102420 87
2005-09-21 07:12:25 51°17.92 2°50.687 5.7 347 14.9 102420 87
2005-09-21 07:12:31 51°17.93 2°50.656 6.1 347 14.9 102420 87
2005-09-21 07:12:35 51°17.937 2°50.63 6.1 347 14.9 102420 87
2005-09-21 07:12:40 51°17.944 2°50.604 5.9 344 14.9 102420 87
2005-09-21 07:12:45 51°17.954 2°50.573 6.5 347 14.9 102420 87
2005-09-21 07:12:49 51°17.961 2°50.55 6.6 343 14.9 102420 87
2005-09-21 07:12:55 51°17.97 2°50.516 5.5 344 14.9 102420 87
2005-09-21 07:13:00 51°17.978 2°50.491 6 345 14.9 102420 86
2005-09-21 07:13:05 51°17.987 2°50.46 6.2 344 14.9 102420 86
2005-09-21 07:13:11 51°17.996 2°50.429 6.3 345 14.9 102420 86
2005-09-21 07:13:16 51°18.004 2°50.4 5.7 347 14.9 102420 86
2005-09-21 07:13:20 51°18.011 2°50.377 6.2 345 14.9 102420 86
2005-09-21 07:13:25 51°18.02 2°50.346 5.6 346 14.9 102420 86
2005-09-21 07:13:30 51°18.028 2°50.32 6.3 348 15 102420 86
2005-09-21 07:13:36 51°18.038 2°50.286 6.7 341 15 102420 86
2005-09-21 07:13:40 51°18.046 2°50.26 6 342 14.9 102420 86
2005-09-21 07:13:45 51°18.054 2°50.232 6.2 343 14.9 102420 86
2005-09-21 07:13:50 51°18.062 2°50.204 6.2 348 14.9 102420 86
2005-09-21 07:13:55 51°18.071 2°50.175 7 345 14.9 102420 86
2005-09-21 07:14:00 51°18.079 2°50.146 6.2 343 14.9 102420 86
2005-09-21 07:14:05 51°18.087 2°50.118 6.7 342 14.9 102420 86
2005-09-21 07:14:10 51°18.096 2°50.089 6.7 343 14.9 102420 85
2005-09-21 07:14:15 51°18.104 2°50.061 5.3 345 14.9 102420 85
2005-09-21 07:14:20 51°18.112 2°50.032 6.5 344 14.9 102420 85
2005-09-21 07:14:25 51°18.12 2°50.004 6.5 344 14.9 102420 85
2005-09-21 07:14:31 51°18.13 2°49.972 6.6 345 14.9 102420 85
2005-09-21 07:14:36 51°18.138 2°49.944 5.8 343 14.9 102420 85
2005-09-21 07:14:40 51°18.145 2°49.921 5.2 343 14.9 102420 85
2005-09-21 07:14:46 51°18.155 2°49.887 5.8 343 14.9 102420 85
2005-09-21 07:14:49 51°18.161 2°49.867 6.5 345 14.9 102420 85
2005-09-21 07:14:56 51°18.172 2°49.83 6 347 14.9 102420 85
2005-09-21 07:15:00 51°18.179 2°49.807 5.5 346 14.9 102420 85
2005-09-21 07:15:05 51°18.188 2°49.776 5.9 346 14.9 102420 85
2005-09-21 07:15:09 51°18.195 2°49.754 5.6 340 14.9 102420 85
2005-09-21 07:15:15 51°18.205 2°49.719 6.5 342 14.9 102420 85
2005-09-21 07:15:20 51°18.213 2°49.694 5.7 343 14.9 102420 85
2005-09-21 07:15:25 51°18.222 2°49.662 6.3 344 14.9 102420 85
2005-09-21 07:15:31 51°18.231 2°49.631 6.6 342 14.9 102420 85
2005-09-21 07:15:36 51°18.239 2°49.602 6.3 342 14.9 102420 85
2005-09-21 07:15:40 51°18.246 2°49.576 5.5 340 14.9 102420 85
2005-09-21 07:15:45 51°18.254 2°49.548 5.6 343 14.9 102420 85
2005-09-21 07:15:49 51°18.26 2°49.524 4.8 340 14.9 102420 85
2005-09-21 07:15:56 51°18.27 2°49.487 5.4 339 14.9 102420 85
2005-09-21 07:16:00 51°18.278 2°49.462 5.5 343 14.9 102420 85
2005-09-21 07:16:05 51°18.286 2°49.434 5.4 341 14.9 102420 85
2005-09-21 07:16:10 51°18.294 2°49.408 5.7 344 14.9 102420 85
2005-09-21 07:16:15 51°18.303 2°49.378 5.9 344 14.9 102420 85
2005-09-21 07:16:20 51°18.312 2°49.349 5.4 341 15 102420 85
2005-09-21 07:16:25 51°18.32 2°49.321 5.7 338 15 102420 85
2005-09-21 07:16:31 51°18.329 2°49.29 5.2 341 15 102420 85
2005-09-21 07:16:36 51°18.338 2°49.261 6.7 342 15 102420 85
2005-09-21 07:16:40 51°18.344 2°49.238 5.7 343 15 102420 85
2005-09-21 07:16:45 51°18.353 2°49.207 5.3 337 15 102420 85
2005-09-21 07:16:50 51°18.361 2°49.181 5 338 15 102420 85
2005-09-21 07:16:55 51°18.37 2°49.15 4.9 341 15 102420 85
2005-09-21 07:17:00 51°18.378 2°49.125 5.2 341 15 102420 85
2005-09-21 07:17:06 51°18.388 2°49.09 4.5 343 15 102420 85
2005-09-21 07:17:11 51°18.396 2°49.062 4.9 343 15 102420 85
2005-09-21 07:17:16 51°18.405 2°49.034 5.2 342 15 102420 85
2005-09-21 07:17:20 51°18.413 2°49.009 5 344 15 102420 85
2005-09-21 07:17:25 51°18.422 2°48.98 5.1 341 15 102420 85
2005-09-21 07:17:29 51°18.429 2°48.957 5.5 340 15 102420 85
2005-09-21 07:17:36 51°18.44 2°48.92 4.8 341 15 102420 85
2005-09-21 07:17:40 51°18.448 2°48.894 6.4 342 15 102420 85
2005-09-21 07:17:45 51°18.456 2°48.866 5.7 340 15 102420 85
2005-09-21 07:17:51 51°18.466 2°48.834 5.1 340 15 102420 85
2005-09-21 07:17:55 51°18.473 2°48.808 5.8 339 15 102420 85
2005-09-21 07:18:00 51°18.482 2°48.78 5.6 335 15 102420 85
2005-09-21 07:18:05 51°18.49 2°48.751 5.3 338 15 102420 85
2005-09-21 07:18:10 51°18.499 2°48.721 5.1 335 15 102420 85
2005-09-21 07:18:15 51°18.507 2°48.692 4.8 339 15 102420 85
2005-09-21 07:18:21 51°18.517 2°48.66 5.2 341 15 102420 85
2005-09-21 07:18:25 51°18.525 2°48.634 5.8 343 15 102420 85
2005-09-21 07:18:31 51°18.534 2°48.603 5.7 341 15 102420 85
2005-09-21 07:18:36 51°18.543 2°48.574 6.2 338 15 102420 85
2005-09-21 07:18:41 51°18.552 2°48.545 5.6 337 15 102420 85
2005-09-21 07:18:45 51°18.559 2°48.519 6.1 341 15 102420 85
2005-09-21 07:18:50 51°18.567 2°48.492 5.3 338 15 102420 85
2005-09-21 07:18:56 51°18.576 2°48.457 5.3 338 15 102420 85
2005-09-21 07:19:00 51°18.582 2°48.433 4.8 339 15 102420 85
2005-09-21 07:19:05 51°18.591 2°48.4 5.9 340 15 102420 85
2005-09-21 07:19:09 51°18.597 2°48.377 4.7 338 15 102420 85
2005-09-21 07:19:15 51°18.607 2°48.341 4.3 338 15 102420 85
2005-09-21 07:19:20 51°18.614 2°48.311 4.2 340 14.9 102420 85
2005-09-21 07:19:25 51°18.622 2°48.281 4.7 339 14.9 102420 85
2005-09-21 07:19:29 51°18.629 2°48.258 4.8 339 15 102420 84
2005-09-21 07:19:36 51°18.639 2°48.219 5.7 342 15 102420 84
2005-09-21 07:19:40 51°18.645 2°48.195 5.4 342 14.9 102420 84
2005-09-21 07:19:45 51°18.654 2°48.163 5.9 342 14.9 102420 84
2005-09-21 07:19:50 51°18.661 2°48.136 5.2 340 15 102420 85
2005-09-21 07:19:55 51°18.669 2°48.104 5.6 343 15 102420 85
2005-09-21 07:20:00 51°18.676 2°48.077 6.1 344 15 102420 85
2005-09-21 07:20:05 51°18.684 2°48.045 5.8 344 15 102420 85
2005-09-21 07:20:09 51°18.691 2°48.021 5.9 340 15 102420 85
2005-09-21 07:20:16 51°18.701 2°47.983 6.1 345 15 102420 85
2005-09-21 07:20:20 51°18.707 2°47.96 5.7 341 15 102420 85
2005-09-21 07:20:26 51°18.717 2°47.925 6.1 339 15 102420 85
2005-09-21 07:20:31 51°18.725 2°47.896 5.9 338 15 102420 85
2005-09-21 07:20:36 51°18.733 2°47.866 5.6 337 15 102420 85
2005-09-21 07:20:40 51°18.739 2°47.84 6 336 15 102420 85
2005-09-21 07:20:45 51°18.746 2°47.811 4.9 338 15 102420 85
2005-09-21 07:20:50 51°18.753 2°47.784 5.3 340 15 102420 85
2005-09-21 07:20:55 51°18.762 2°47.752 4.9 341 15 102420 85
2005-09-21 07:21:00 51°18.769 2°47.726 5.4 340 15 102420 85
2005-09-21 07:21:05 51°18.778 2°47.695 5.9 340 15 102420 85
2005-09-21 07:21:09 51°18.784 2°47.672 5.3 338 15 102420 85
2005-09-21 07:21:16 51°18.795 2°47.635 4.5 342 15 102420 85
2005-09-21 07:21:20 51°18.801 2°47.612 4.8 339 15 102420 85
2005-09-21 07:21:26 51°18.811 2°47.577 5.9 341 15 102420 85
2005-09-21 07:21:29 51°18.817 2°47.557 4.8 338 15 102420 85
2005-09-21 07:21:35 51°18.825 2°47.522 5.9 334 15 102420 85
2005-09-21 07:21:40 51°18.833 2°47.493 5.8 338 15 102420 85
2005-09-21 07:21:46 51°18.842 2°47.461 5.2 340 15 102420 85
2005-09-21 07:21:50 51°18.849 2°47.435 5.1 337 15 102420 85
2005-09-21 07:21:55 51°18.857 2°47.406 5.4 338 15 102420 85
2005-09-21 07:22:00 51°18.866 2°47.377 4.9 336 15 102420 85
2005-09-21 07:22:05 51°18.873 2°47.349 5.4 337 15 102420 85
2005-09-21 07:22:11 51°18.882 2°47.317 4.8 338 15 102420 85
2005-09-21 07:22:16 51°18.89 2°47.288 4.6 339 15 102420 85
2005-09-21 07:22:20 51°18.896 2°47.265 5.4 340 15 102420 85
2005-09-21 07:22:25 51°18.905 2°47.233 5 340 15 102420 85
2005-09-21 07:22:31 51°18.913 2°47.201 5.3 340 15 102420 84
2005-09-21 07:22:35 51°18.921 2°47.175 5.7 341 15 102420 84
2005-09-21 07:22:40 51°18.928 2°47.148 4.2 338 15 102420 84
2005-09-21 07:22:45 51°18.936 2°47.116 6.3 338 15 102420 84
2005-09-21 07:22:50 51°18.944 2°47.087 5.2 333 15 102420 84
2005-09-21 07:22:56 51°18.953 2°47.055 5.8 332 15 102420 84
2005-09-21 07:23:00 51°18.961 2°47.029 5.7 334 15 102420 84
2005-09-21 07:23:05 51°18.969 2°47 5 334 15 102420 84
2005-09-21 07:23:10 51°18.976 2°46.974 4.2 337 15 102420 84
2005-09-21 07:23:15 51°18.985 2°46.942 4.3 333 15 102420 84
2005-09-21 07:23:20 51°18.992 2°46.916 4.5 341 15 102420 84
2005-09-21 07:23:25 51°19.001 2°46.884 4.5 338 15 102420 84
2005-09-21 07:23:31 51°19.009 2°46.852 4 338 15 102410 83
2005-09-21 07:23:35 51°19.016 2°46.826 3.7 337 15 102410 83
2005-09-21 07:23:40 51°19.023 2°46.799 5.7 335 15 102420 83
2005-09-21 07:23:45 51°19.032 2°46.767 5.1 335 15 102420 83
2005-09-21 07:23:51 51°19.041 2°46.735 5.4 335 15 102420 83
2005-09-21 07:23:56 51°19.049 2°46.706 5.4 334 15 102420 83
2005-09-21 07:24:00 51°19.056 2°46.683 5.4 337 15 102420 83
2005-09-21 07:24:05 51°19.065 2°46.65 6.2 335 15 102420 83
2005-09-21 07:24:11 51°19.073 2°46.618 5.1 334 15 102420 83
2005-09-21 07:24:16 51°19.081 2°46.59 4.8 336 15 102420 83
2005-09-21 07:24:20 51°19.088 2°46.566 4.8 336 15 102420 83
2005-09-21 07:24:25 51°19.097 2°46.534 3.9 334 15 102420 83
2005-09-21 07:24:31 51°19.106 2°46.502 4.6 337 15 102420 83
2005-09-21 07:24:35 51°19.113 2°46.476 4.1 336 15 102420 83
2005-09-21 07:24:40 51°19.122 2°46.447 5.3 335 15 102420 83
2005-09-21 07:24:45 51°19.13 2°46.419 4.3 336 15 102420 83
2005-09-21 07:24:51 51°19.139 2°46.387 4.4 337 15 102420 83
2005-09-21 07:24:56 51°19.148 2°46.358 4.3 338 15 102420 83
2005-09-21 07:25:01 51°19.156 2°46.329 3.9 335 15 102420 83
2005-09-21 07:25:05 51°19.164 2°46.303 5.1 338 15 102420 83
2005-09-21 07:25:10 51°19.171 2°46.277 4.7 338 15 102420 83
2005-09-21 07:25:15 51°19.18 2°46.245 6 337 15 102420 83
2005-09-21 07:25:20 51°19.188 2°46.22 5.5 337 15.1 102420 83
2005-09-21 07:25:25 51°19.197 2°46.188 5 339 15.1 102420 83
2005-09-21 07:25:30 51°19.205 2°46.162 5.6 339 15.1 102420 83
2005-09-21 07:25:36 51°19.214 2°46.128 5.2 336 15.1 102420 83
2005-09-21 07:25:40 51°19.221 2°46.105 4.5 335 15.1 102420 83
2005-09-21 07:25:46 51°19.231 2°46.07 5.1 334 15.1 102420 83
2005-09-21 07:25:51 51°19.239 2°46.042 4.9 339 15.1 102420 84
2005-09-21 07:25:56 51°19.247 2°46.013 5.6 336 15.1 102420 84
2005-09-21 07:26:00 51°19.253 2°45.99 5.5 337 15.1 102420 83
2005-09-21 07:26:06 51°19.263 2°45.955 5.5 341 15.1 102420 83
2005-09-21 07:26:09 51°19.268 2°45.935 5.7 338 15.1 102410 83
2005-09-21 07:26:15 51°19.278 2°45.901 5.6 334 15.1 102410 83
2005-09-21 07:26:20 51°19.286 2°45.875 5.3 336 15.1 102410 83
2005-09-21 07:26:25 51°19.294 2°45.843 4.7 333 15.1 102410 83
2005-09-21 07:26:29 51°19.301 2°45.82 5 334 15.1 102420 83
2005-09-21 07:26:36 51°19.311 2°45.782 3.9 335 15.1 102420 83
2005-09-21 07:26:40 51°19.318 2°45.759 3.6 332 15.1 102410 83
2005-09-21 07:26:45 51°19.327 2°45.727 4.4 338 15.1 102410 83
2005-09-21 07:26:51 51°19.336 2°45.695 5.3 337 15.1 102420 82
2005-09-21 07:26:56 51°19.344 2°45.666 4.6 337 15.1 102420 82
2005-09-21 07:27:00 51°19.352 2°45.64 4.7 336 15.1 102420 82
2005-09-21 07:27:05 51°19.36 2°45.612 3.7 335 15.1 102420 82
2005-09-21 07:27:10 51°19.368 2°45.586 3.9 339 15.1 102420 82
2005-09-21 07:27:15 51°19.377 2°45.554 3.7 335 15.1 102420 82
2005-09-21 07:27:20 51°19.385 2°45.528 4.8 339 15.1 102420 82
2005-09-21 07:27:25 51°19.395 2°45.497 4.7 341 15.1 102420 82
2005-09-21 07:27:31 51°19.404 2°45.465 5.7 347 15.1 102420 83
2005-09-21 07:27:36 51°19.413 2°45.437 5.1 344 15.1 102420 83
2005-09-21 07:27:40 51°19.421 2°45.413 5.8 340 15.2 102420 83
2005-09-21 07:27:45 51°19.431 2°45.382 4.9 340 15.2 102420 83
2005-09-21 07:27:50 51°19.438 2°45.356 5.8 335 15.2 102420 83
2005-09-21 07:27:55 51°19.448 2°45.325 5 334 15.2 102420 83
2005-09-21 07:28:00 51°19.456 2°45.299 3.8 337 15.2 102420 83
2005-09-21 07:28:05 51°19.466 2°45.267 4.5 337 15.2 102420 83
2005-09-21 07:28:11 51°19.476 2°45.236 4.2 336 15.2 102420 83
2005-09-21 07:28:16 51°19.485 2°45.207 4.6 342 15.2 102420 83
2005-09-21 07:28:20 51°19.493 2°45.183 5.3 341 15.2 102420 83
2005-09-21 07:28:25 51°19.503 2°45.151 5.4 341 15.2 102420 83
2005-09-21 07:28:29 51°19.51 2°45.127 5.2 341 15.2 102420 82
2005-09-21 07:28:35 51°19.521 2°45.091 4.5 339 15.2 102420 82
2005-09-21 07:28:40 51°19.529 2°45.064 5.8 341 15.2 102420 82
2005-09-21 07:28:45 51°19.539 2°45.032 4.4 339 15.2 102420 82
2005-09-21 07:28:49 51°19.546 2°45.009 4.1 341 15.2 102420 82
2005-09-21 07:28:56 51°19.558 2°44.97 3.9 340 15.2 102420 82
2005-09-21 07:29:00 51°19.565 2°44.947 3.9 338 15.2 102420 82
2005-09-21 07:29:05 51°19.575 2°44.915 3.7 341 15.2 102420 82
2005-09-21 07:29:09 51°19.582 2°44.892 5.1 336 15.2 102420 82
2005-09-21 07:29:16 51°19.594 2°44.854 4.6 340 15.2 102420 82
2005-09-21 07:29:20 51°19.601 2°44.831 5.3 340 15.2 102420 83
2005-09-21 07:29:25 51°19.611 2°44.799 4.5 340 15.2 102420 83
2005-09-21 07:29:29 51°19.618 2°44.776 4 338 15.2 102420 83
2005-09-21 07:29:36 51°19.629 2°44.738 4.5 339 15.2 102420 83
2005-09-21 07:29:40 51°19.636 2°44.715 4.3 337 15.2 102420 83
2005-09-21 07:29:45 51°19.645 2°44.683 3.7 340 15.2 102420 83
2005-09-21 07:29:50 51°19.653 2°44.657 4 340 15.3 102420 83
2005-09-21 07:29:55 51°19.662 2°44.625 3.9 341 15.3 102420 83
2005-09-21 07:30:00 51°19.669 2°44.599 5 342 15.3 102420 83
2005-09-21 07:30:05 51°19.678 2°44.567 3.6 341 15.3 102420 83
2005-09-21 07:30:09 51°19.685 2°44.544 4.6 335 15.3 102420 83
2005-09-21 07:30:16 51°19.696 2°44.506 4.6 337 15.3 102420 83
2005-09-21 07:30:20 51°19.704 2°44.48 3.6 338 15.3 102420 83
2005-09-21 07:30:25 51°19.712 2°44.451 3.9 341 15.3 102420 83
2005-09-21 07:30:29 51°19.718 2°44.428 4.4 340 15.3 102420 83
2005-09-21 07:30:36 51°19.729 2°44.39 3.5 340 15.3 102420 83
2005-09-21 07:30:40 51°19.737 2°44.364 3.4 338 15.3 102420 82
2005-09-21 07:30:46 51°19.747 2°44.332 3.6 336 15.3 102420 82
2005-09-21 07:30:50 51°19.755 2°44.306 3.1 340 15.3 102420 82
2005-09-21 07:30:55 51°19.763 2°44.278 2.9 343 15.3 102420 82
2005-09-21 07:31:00 51°19.77 2°44.252 4.1 342 15.3 102420 82
2005-09-21 07:31:05 51°19.78 2°44.22 4.1 338 15.3 102420 82
2005-09-21 07:31:11 51°19.789 2°44.189 4.2 340 15.3 102420 82
2005-09-21 07:31:16 51°19.797 2°44.16 4.1 337 15.3 102420 82
2005-09-21 07:31:20 51°19.804 2°44.137 3.7 338 15.3 102420 82
2005-09-21 07:31:25 51°19.813 2°44.105 3.7 340 15.3 102420 82
2005-09-21 07:31:29 51°19.819 2°44.082 3.7 339 15.3 102420 82
2005-09-21 07:31:36 51°19.83 2°44.044 4.3 339 15.3 102420 82
2005-09-21 07:31:40 51°19.837 2°44.018 4.1 338 15.3 102420 82
2005-09-21 07:31:45 51°19.845 2°43.989 4.1 340 15.3 102420 82
2005-09-21 07:31:49 51°19.852 2°43.966 4.3 341 15.3 102410 82
2005-09-21 07:31:56 51°19.862 2°43.928 4.3 341 15.3 102410 82
2005-09-21 07:32:00 51°19.869 2°43.905 4.9 339 15.3 102420 82
2005-09-21 07:32:06 51°19.879 2°43.87 3.7 339 15.3 102420 82
2005-09-21 07:32:09 51°19.884 2°43.85 3.3 342 15.3 102420 82
2005-09-21 07:32:16 51°19.895 2°43.812 3.3 343 15.3 102420 82
2005-09-21 07:32:20 51°19.902 2°43.789 3.6 342 15.3 102420 82
2005-09-21 07:32:25 51°19.911 2°43.757 4.2 338 15.3 102420 82
2005-09-21 07:32:31 51°19.92 2°43.726 3.5 337 15.3 102420 82
2005-09-21 07:32:35 51°19.928 2°43.7 4.3 340 15.3 102420 82
2005-09-21 07:32:40 51°19.935 2°43.674 4.4 335 15.3 102420 82
2005-09-21 07:32:45 51°19.945 2°43.642 4.5 336 15.3 102420 82
2005-09-21 07:32:50 51°19.953 2°43.613 4.3 340 15.4 102420 82
2005-09-21 07:32:56 51°19.962 2°43.581 3.9 339 15.4 102420 82
2005-09-21 07:33:01 51°19.97 2°43.552 3.6 344 15.4 102420 82
2005-09-21 07:33:05 51°19.978 2°43.526 3.4 343 15.4 102420 82
2005-09-21 07:33:09 51°19.984 2°43.503 3 341 15.4 102420 82
2005-09-21 07:33:15 51°19.995 2°43.468 3.7 342 15.4 102420 82
2005-09-21 07:33:20 51°20.002 2°43.442 4.4 342 15.4 102420 82
2005-09-21 07:33:25 51°20.011 2°43.411 4.8 338 15.4 102420 82
2005-09-21 07:33:31 51°20.021 2°43.379 5.8 337 15.4 102420 82
2005-09-21 07:33:36 51°20.029 2°43.35 4.4 336 15.4 102420 82
2005-09-21 07:33:40 51°20.035 2°43.327 5.6 336 15.4 102420 82
2005-09-21 07:33:45 51°20.045 2°43.295 4.2 337 15.4 102420 82
2005-09-21 07:33:50 51°20.053 2°43.269 3.4 339 15.4 102420 82
2005-09-21 07:33:55 51°20.062 2°43.238 4.1 339 15.4 102420 82
2005-09-21 07:34:00 51°20.069 2°43.212 4.8 338 15.4 102420 82
2005-09-21 07:34:05 51°20.078 2°43.18 4.9 339 15.4 102420 82
2005-09-21 07:34:09 51°20.085 2°43.157 5.4 337 15.5 102410 83
2005-09-21 07:34:16 51°20.096 2°43.12 5 338 15.5 102410 83
2005-09-21 07:34:20 51°20.103 2°43.097 5.2 336 15.5 102420 83
2005-09-21 07:34:25 51°20.112 2°43.065 4.6 337 15.5 102420 83
2005-09-21 07:34:29 51°20.118 2°43.042 4.2 335 15.5 102420 83
2005-09-21 07:34:35 51°20.128 2°43.007 4.5 336 15.5 102420 83
2005-09-21 07:34:40 51°20.135 2°42.981 5.7 335 15.5 102420 82
2005-09-21 07:34:45 51°20.144 2°42.949 5.9 337 15.5 102420 82
2005-09-21 07:34:49 51°20.15 2°42.925 5.4 338 15.4 102420 82
2005-09-21 07:34:55 51°20.159 2°42.89 5.3 339 15.4 102420 82
2005-09-21 07:35:00 51°20.166 2°42.864 5.4 340 15.5 102420 81
2005-09-21 07:35:05 51°20.175 2°42.831 5 338 15.5 102420 81
2005-09-21 07:35:09 51°20.181 2°42.807 6.6 335 15.4 102420 81
2005-09-21 07:35:15 51°20.191 2°42.772 6.4 337 15.4 102420 81
2005-09-21 07:35:20 51°20.198 2°42.746 6.3 338 15.4 102420 81
2005-09-21 07:35:25 51°20.206 2°42.713 4.9 334 15.4 102420 81
2005-09-21 07:35:31 51°20.216 2°42.678 5.1 337 15.4 102420 81
2005-09-21 07:35:35 51°20.223 2°42.654 5.7 336 15.4 102420 81
2005-09-21 07:35:40 51°20.229 2°42.628 4.5 338 15.4 102410 80
2005-09-21 07:35:45 51°20.238 2°42.596 4.3 335 15.4 102410 80
2005-09-21 07:35:51 51°20.247 2°42.563 5.9 338 15.4 102420 80
2005-09-21 07:35:56 51°20.255 2°42.534 4.7 336 15.4 102420 80
2005-09-21 07:36:00 51°20.262 2°42.508 6.3 339 15.4 102410 80
2005-09-21 07:36:05 51°20.27 2°42.479 5.8 335 15.4 102410 80
2005-09-21 07:36:11 51°20.279 2°42.447 5.4 342 15.5 102420 80
2005-09-21 07:36:16 51°20.287 2°42.417 5.6 340 15.5 102420 80
2005-09-21 07:36:20 51°20.294 2°42.394 5.2 337 15.5 102420 80
2005-09-21 07:36:25 51°20.303 2°42.362 5.6 337 15.5 102420 80
2005-09-21 07:36:31 51°20.312 2°42.33 5.5 340 15.5 102420 80
2005-09-21 07:36:35 51°20.319 2°42.303 5.1 336 15.5 102420 80
2005-09-21 07:36:40 51°20.327 2°42.274 6.1 339 15.5 102420 80
2005-09-21 07:36:46 51°20.336 2°42.241 5.3 334 15.5 102420 80
2005-09-21 07:36:50 51°20.343 2°42.215 4.9 336 15.5 102420 80
2005-09-21 07:36:55 51°20.352 2°42.186 4.9 335 15.5 102420 80
2005-09-21 07:37:01 51°20.361 2°42.154 5.2 338 15.5 102420 80
2005-09-21 07:37:05 51°20.368 2°42.127 5.6 339 15.5 102420 80
2005-09-21 07:37:10 51°20.376 2°42.101 6 334 15.5 102420 80
2005-09-21 07:37:16 51°20.385 2°42.065 5.7 337 15.5 102420 80
2005-09-21 07:37:21 51°20.394 2°42.036 5.1 341 15.5 102420 80
2005-09-21 07:37:25 51°20.401 2°42.01 5.1 337 15.5 102420 80
2005-09-21 07:37:29 51°20.408 2°41.987 4.8 340 15.5 102420 80
2005-09-21 07:37:35 51°20.418 2°41.951 6.9 338 15.5 102420 80
2005-09-21 07:37:40 51°20.426 2°41.925 6.3 339 15.6 102420 80
2005-09-21 07:37:45 51°20.434 2°41.892 5.8 336 15.6 102420 80
2005-09-21 07:37:51 51°20.444 2°41.86 5.7 337 15.6 102430 81
2005-09-21 07:37:56 51°20.452 2°41.83 5.1 337 15.6 102430 81
2005-09-21 07:38:00 51°20.459 2°41.806 5.5 340 15.6 102420 81
2005-09-21 07:38:05 51°20.468 2°41.775 5.3 338 15.6 102420 81
2005-09-21 07:38:11 51°20.477 2°41.741 4.8 337 15.6 102420 80
2005-09-21 07:38:16 51°20.486 2°41.712 5.3 337 15.6 102420 80
2005-09-21 07:38:20 51°20.493 2°41.688 6.2 339 15.6 102420 80
2005-09-21 07:38:25 51°20.502 2°41.656 5 339 15.6 102420 80
2005-09-21 07:38:29 51°20.508 2°41.633 5 339 15.6 102420 80
2005-09-21 07:38:36 51°20.519 2°41.594 5.4 342 15.6 102420 80
2005-09-21 07:38:40 51°20.526 2°41.571 5.5 337 15.6 102420 80
2005-09-21 07:38:45 51°20.535 2°41.538 6.7 338 15.6 102420 80
2005-09-21 07:38:49 51°20.542 2°41.515 4.9 335 15.6 102420 80
2005-09-21 07:38:56 51°20.553 2°41.477 5.6 337 15.6 102420 80
2005-09-21 07:39:00 51°20.56 2°41.451 5.6 339 15.7 102420 80
2005-09-21 07:39:05 51°20.569 2°41.421 7.1 337 15.7 102420 80
2005-09-21 07:39:11 51°20.578 2°41.389 6.3 336 15.6 102420 80
2005-09-21 07:39:16 51°20.586 2°41.36 4.8 334 15.6 102420 80
2005-09-21 07:39:20 51°20.594 2°41.334 5.4 339 15.6 102420 80
2005-09-21 07:39:25 51°20.603 2°41.304 5.6 339 15.6 102420 80
2005-09-21 07:39:30 51°20.61 2°41.278 5.2 337 15.6 102420 80
2005-09-21 07:39:35 51°20.62 2°41.246 6 339 15.6 102420 80
2005-09-21 07:39:40 51°20.627 2°41.22 6.7 336 15.6 102420 80
2005-09-21 07:39:45 51°20.637 2°41.188 6.7 334 15.6 102420 80
2005-09-21 07:39:49 51°20.643 2°41.164 5.5 335 15.6 102420 80
2005-09-21 07:39:55 51°20.653 2°41.13 5.7 333 15.6 102420 80
2005-09-21 07:40:00 51°20.66 2°41.103 6.3 336 15.6 102420 80
2005-09-21 07:40:06 51°20.67 2°41.067 6.1 332 15.6 102420 80
2005-09-21 07:40:11 51°20.675 2°41.037 5.6 334 15.6 102420 80
2005-09-21 07:40:15 51°20.68 2°41.01 7.2 340 15.6 102420 80
2005-09-21 07:40:20 51°20.685 2°40.979 7.1 342 15.6 102420 79
2005-09-21 07:40:26 51°20.69 2°40.944 7.9 334 15.6 102420 79
2005-09-21 07:40:31 51°20.693 2°40.913 6.9 330 15.6 102420 80
2005-09-21 07:40:36 51°20.695 2°40.881 6.6 337 15.6 102420 80
2005-09-21 07:40:41 51°20.697 2°40.85 7 336 15.6 102420 80
2005-09-21 07:40:45 51°20.699 2°40.821 7.5 335 15.6 102420 80
2005-09-21 07:40:51 51°20.701 2°40.786 6.8 335 15.6 102420 80
2005-09-21 07:40:56 51°20.702 2°40.754 7.1 333 15.6 102420 80
2005-09-21 07:41:00 51°20.703 2°40.729 7.6 334 15.6 102420 80
2005-09-21 07:41:05 51°20.704 2°40.694 6.3 334 15.6 102420 80
2005-09-21 07:41:09 51°20.705 2°40.668 8 334 15.6 102410 79
2005-09-21 07:41:15 51°20.706 2°40.629 7.9 332 15.6 102410 79
2005-09-21 07:41:20 51°20.706 2°40.6 7.2 332 15.6 102420 79
2005-09-21 07:41:25 51°20.707 2°40.565 6.3 337 15.6 102420 79
2005-09-21 07:41:29 51°20.707 2°40.54 7.4 342 15.6 102410 79
2005-09-21 07:41:36 51°20.704 2°40.499 8.1 340 15.6 102410 79
2005-09-21 07:41:40 51°20.702 2°40.474 7 342 15.6 102410 79
2005-09-21 07:41:45 51°20.697 2°40.44 8.2 340 15.6 102410 79
2005-09-21 07:41:50 51°20.694 2°40.408 6.4 340 15.6 102410 79
2005-09-21 07:41:56 51°20.689 2°40.374 7.6 342 15.6 102410 79
2005-09-21 07:42:01 51°20.684 2°40.343 6.6 344 15.6 102410 80
2005-09-21 07:42:06 51°20.679 2°40.312 8.7 342 15.6 102410 80
2005-09-21 07:42:09 51°20.676 2°40.29 8 343 15.6 102410 80
2005-09-21 07:42:16 51°20.669 2°40.25 7.9 343 15.6 102410 80
2005-09-21 07:42:20 51°20.665 2°40.221 7.8 339 15.6 102410 80
2005-09-21 07:42:25 51°20.66 2°40.191 7.5 339 15.6 102410 80
2005-09-21 07:42:31 51°20.655 2°40.156 7.8 341 15.7 102410 80
2005-09-21 07:42:36 51°20.649 2°40.125 7.8 342 15.7 102410 80
2005-09-21 07:42:40 51°20.645 2°40.097 7.8 341 15.6 102410 80
2005-09-21 07:42:45 51°20.64 2°40.066 8.8 338 15.6 102410 80
2005-09-21 07:42:51 51°20.635 2°40.031 8.1 338 15.6 102410 80
2005-09-21 07:42:56 51°20.63 2°40 8.6 339 15.6 102410 80
2005-09-21 07:43:00 51°20.626 2°39.975 8.4 344 15.6 102410 80
2005-09-21 07:43:05 51°20.621 2°39.941 7.8 344 15.6 102410 80
2005-09-21 07:43:11 51°20.616 2°39.906 7.5 342 15.7 102410 81
2005-09-21 07:43:15 51°20.611 2°39.878 8 340 15.7 102410 81
2005-09-21 07:43:20 51°20.607 2°39.85 7.8 341 15.7 102410 81
2005-09-21 07:43:25 51°20.603 2°39.815 7.8 337 15.7 102410 81
2005-09-21 07:43:31 51°20.598 2°39.78 7.9 338 15.7 102410 81
2005-09-21 07:43:36 51°20.595 2°39.749 7.4 338 15.7 102410 81
2005-09-21 07:43:40 51°20.591 2°39.72 7.6 340 15.7 102410 81
2005-09-21 07:43:45 51°20.588 2°39.689 7.6 340 15.7 102410 81
2005-09-21 07:43:51 51°20.584 2°39.654 8.1 343 15.7 102410 81
2005-09-21 07:43:56 51°20.581 2°39.622 8.5 339 15.7 102410 81
2005-09-21 07:44:00 51°20.579 2°39.596 8.1 339 15.7 102410 81
2005-09-21 07:44:06 51°20.575 2°39.557 8.1 337 15.7 102410 81
2005-09-21 07:44:09 51°20.573 2°39.536 8.5 336 15.7 102410 82
2005-09-21 07:44:16 51°20.569 2°39.494 8.4 341 15.7 102410 82
2005-09-21 07:44:20 51°20.567 2°39.465 7.5 337 15.7 102410 81
2005-09-21 07:44:25 51°20.565 2°39.433 7.9 337 15.7 102410 81
2005-09-21 07:44:29 51°20.563 2°39.408 8.3 338 15.7 102410 81
2005-09-21 07:44:36 51°20.561 2°39.366 7.8 338 15.7 102410 81
2005-09-21 07:44:40 51°20.559 2°39.337 6.9 335 15.7 102410 81
2005-09-21 07:44:45 51°20.556 2°39.305 7 335 15.7 102410 81
2005-09-21 07:44:51 51°20.554 2°39.27 6.9 335 15.7 102410 81
2005-09-21 07:44:55 51°20.553 2°39.242 7.6 340 15.7 102410 81
2005-09-21 07:45:00 51°20.552 2°39.213 7.5 337 15.7 102410 80
2005-09-21 07:45:05 51°20.551 2°39.178 7.4 334 15.7 102410 80
2005-09-21 07:45:09 51°20.55 2°39.152 7.7 336 15.7 102410 80
2005-09-21 07:45:16 51°20.549 2°39.11 7.8 341 15.7 102410 80
2005-09-21 07:45:20 51°20.548 2°39.085 7.9 340 15.7 102410 80
2005-09-21 07:45:25 51°20.547 2°39.05 7.2 340 15.7 102410 80
2005-09-21 07:45:29 51°20.546 2°39.024 7.2 340 15.7 102410 80
2005-09-21 07:45:36 51°20.546 2°38.982 8 340 15.7 102410 80
2005-09-21 07:45:40 51°20.547 2°38.956 7.7 334 15.7 102410 80
2005-09-21 07:45:45 51°20.548 2°38.921 7.2 337 15.7 102410 80
2005-09-21 07:45:49 51°20.549 2°38.895 6.8 333 15.7 102410 80
2005-09-21 07:45:55 51°20.55 2°38.857 7.2 334 15.7 102410 80
2005-09-21 07:46:00 51°20.552 2°38.828 6.4 334 15.7 102410 81
2005-09-21 07:46:06 51°20.553 2°38.789 6.8 335 15.7 102410 81
2005-09-21 07:46:09 51°20.554 2°38.767 7.1 334 15.7 102410 80
2005-09-21 07:46:15 51°20.557 2°38.728 6.8 333 15.7 102410 80
2005-09-21 07:46:20 51°20.559 2°38.699 7.5 334 15.7 102410 80
2005-09-21 07:46:26 51°20.562 2°38.66 7.5 334 15.7 102410 80
2005-09-21 07:46:29 51°20.564 2°38.638 6.5 337 15.7 102410 80
2005-09-21 07:46:35 51°20.566 2°38.6 6.2 337 15.7 102410 80
2005-09-21 07:46:40 51°20.569 2°38.571 6.4 336 15.7 102410 81
2005-09-21 07:46:46 51°20.571 2°38.532 7.3 338 15.7 102410 81
2005-09-21 07:46:49 51°20.572 2°38.509 6.7 338 15.7 102410 81
2005-09-21 07:46:55 51°20.575 2°38.471 7.3 337 15.7 102410 81
2005-09-21 07:47:00 51°20.577 2°38.442 6.6 334 15.7 102410 81
2005-09-21 07:47:05 51°20.58 2°38.407 6.6 334 15.7 102410 81
2005-09-21 07:47:09 51°20.582 2°38.381 6.3 332 15.7 102410 81
2005-09-21 07:47:15 51°20.586 2°38.343 5.5 334 15.7 102410 81
2005-09-21 07:47:20 51°20.589 2°38.314 7.3 333 15.7 102410 81
2005-09-21 07:47:25 51°20.593 2°38.279 6.2 332 15.7 102410 81
2005-09-21 07:47:29 51°20.596 2°38.254 6.4 330 15.7 102420 81
2005-09-21 07:47:36 51°20.601 2°38.212 6.8 336 15.7 102420 81
2005-09-21 07:47:40 51°20.604 2°38.187 7.4 336 15.7 102410 81
2005-09-21 07:47:45 51°20.607 2°38.152 7.8 335 15.7 102410 81
2005-09-21 07:47:49 51°20.61 2°38.126 7.2 336 15.7 102420 81
2005-09-21 07:47:56 51°20.615 2°38.085 7.3 333 15.7 102420 81
2005-09-21 07:48:00 51°20.618 2°38.059 7.3 333 15.7 102410 81
2005-09-21 07:48:05 51°20.622 2°38.024 7.1 332 15.7 102410 81
2005-09-21 07:48:09 51°20.625 2°37.999 6.7 331 15.7 102410 81
2005-09-21 07:48:15 51°20.629 2°37.96 7.5 334 15.7 102410 81
2005-09-21 07:48:20 51°20.632 2°37.931 8 333 15.7 102410 81
2005-09-21 07:48:25 51°20.636 2°37.896 7.5 332 15.7 102410 81
2005-09-21 07:48:29 51°20.639 2°37.871 7.7 332 15.6 102410 81
2005-09-21 07:48:36 51°20.644 2°37.829 7.5 334 15.6 102410 81
2005-09-21 07:48:40 51°20.647 2°37.804 8.1 335 15.7 102410 81
2005-09-21 07:48:45 51°20.651 2°37.768 7.4 334 15.7 102410 81
2005-09-21 07:48:51 51°20.655 2°37.733 7.2 335 15.7 102410 81
2005-09-21 07:48:55 51°20.659 2°37.704 7.9 337 15.7 102410 81
2005-09-21 07:49:00 51°20.662 2°37.672 8 337 15.7 102410 81
2005-09-21 07:49:05 51°20.666 2°37.64 8.1 336 15.7 102410 81
2005-09-21 07:49:11 51°20.669 2°37.605 7.7 333 15.7 102410 81
2005-09-21 07:49:16 51°20.673 2°37.573 8.1 332 15.7 102410 81
2005-09-21 07:49:20 51°20.676 2°37.547 7.4 331 15.7 102410 81
2005-09-21 07:49:25 51°20.679 2°37.512 7.7 334 15.7 102410 81
2005-09-21 07:49:29 51°20.682 2°37.486 7.4 333 15.7 102410 81
2005-09-21 07:49:36 51°20.686 2°37.444 6.9 332 15.7 102410 81
2005-09-21 07:49:40 51°20.69 2°37.415 7.7 331 15.7 102420 81
2005-09-21 07:49:45 51°20.693 2°37.383 7.1 330 15.7 102420 81
2005-09-21 07:49:49 51°20.696 2°37.358 7.9 335 15.7 102410 81
2005-09-21 07:49:56 51°20.7 2°37.316 7.9 333 15.7 102410 81
2005-09-21 07:50:01 51°20.704 2°37.284 8.2 337 15.7 102410 81
2005-09-21 07:50:05 51°20.707 2°37.255 7.9 336 15.7 102410 81
2005-09-21 07:50:11 51°20.71 2°37.22 8.1 333 15.7 102410 81
2005-09-21 07:50:16 51°20.714 2°37.188 8.1 331 15.7 102410 81
2005-09-21 07:50:20 51°20.717 2°37.159 7.3 332 15.7 102410 81
2005-09-21 07:50:25 51°20.721 2°37.127 7.7 333 15.7 102410 81
2005-09-21 07:50:30 51°20.724 2°37.095 7.5 336 15.7 102410 81
2005-09-21 07:50:35 51°20.728 2°37.063 8.3 336 15.7 102410 81
2005-09-21 07:50:40 51°20.732 2°37.034 8 335 15.7 102410 81
2005-09-21 07:50:46 51°20.736 2°36.995 7.7 335 15.7 102410 81
2005-09-21 07:50:49 51°20.738 2°36.973 8 332 15.7 102410 81
2005-09-21 07:50:56 51°20.742 2°36.931 7.6 332 15.7 102410 81
2005-09-21 07:51:00 51°20.745 2°36.906 7.7 330 15.7 102410 81
2005-09-21 07:51:06 51°20.749 2°36.867 7.4 328 15.7 102410 81
2005-09-21 07:51:09 51°20.752 2°36.844 7.1 332 15.7 102410 81
2005-09-21 07:51:16 51°20.756 2°36.802 7.8 331 15.7 102410 81
2005-09-21 07:51:20 51°20.759 2°36.776 7.3 329 15.7 102410 81
2005-09-21 07:51:25 51°20.763 2°36.741 7.4 332 15.7 102410 81
2005-09-21 07:51:29 51°20.766 2°36.715 7.8 334 15.7 102410 81
2005-09-21 07:51:36 51°20.77 2°36.673 7.6 333 15.7 102410 81
2005-09-21 07:51:40 51°20.773 2°36.644 7.9 329 15.7 102410 81
2005-09-21 07:51:45 51°20.777 2°36.612 7.2 332 15.7 102410 81
2005-09-21 07:51:50 51°20.78 2°36.583 7.4 331 15.7 102410 81
2005-09-21 07:51:56 51°20.784 2°36.544 7.7 334 15.7 102410 81
2005-09-21 07:52:00 51°20.787 2°36.515 8 334 15.7 102410 81
2005-09-21 07:52:05 51°20.791 2°36.483 8.1 338 15.7 102410 81
2005-09-21 07:52:11 51°20.795 2°36.448 7.8 336 15.7 102410 82
2005-09-21 07:52:16 51°20.798 2°36.415 7.7 337 15.7 102410 82
2005-09-21 07:52:20 51°20.801 2°36.386 7.8 333 15.7 102410 82
2005-09-21 07:52:25 51°20.805 2°36.354 7.8 334 15.7 102410 82
2005-09-21 07:52:31 51°20.808 2°36.318 7.2 333 15.7 102410 82
2005-09-21 07:52:36 51°20.812 2°36.285 7.9 334 15.7 102410 82
2005-09-21 07:52:40 51°20.815 2°36.256 8.2 335 15.7 102410 82
2005-09-21 07:52:45 51°20.818 2°36.224 7.9 334 15.7 102410 82
2005-09-21 07:52:51 51°20.822 2°36.188 7.5 333 15.7 102410 81
2005-09-21 07:52:55 51°20.825 2°36.159 8.5 330 15.7 102410 81
2005-09-21 07:53:00 51°20.828 2°36.129 7.8 334 15.7 102420 81
2005-09-21 07:53:05 51°20.832 2°36.094 7.9 333 15.7 102420 81
2005-09-21 07:53:11 51°20.835 2°36.058 8 331 15.7 102410 81
2005-09-21 07:53:16 51°20.838 2°36.026 7.9 330 15.7 102410 81
2005-09-21 07:53:21 51°20.842 2°35.993 7.9 330 15.7 102410 81
2005-09-21 07:53:25 51°20.844 2°35.964 8 337 15.7 102410 81
2005-09-21 07:53:29 51°20.847 2°35.938 8.3 335 15.7 102410 81
2005-09-21 07:53:36 51°20.85 2°35.895 8 335 15.7 102410 81
2005-09-21 07:53:40 51°20.852 2°35.866 7.6 337 15.7 102410 81
2005-09-21 07:53:45 51°20.854 2°35.833 8.7 335 15.7 102410 81
2005-09-21 07:53:51 51°20.856 2°35.797 7.6 335 15.7 102420 81
2005-09-21 07:53:55 51°20.858 2°35.767 7.9 335 15.7 102420 81
2005-09-21 07:54:00 51°20.859 2°35.738 8.8 337 15.7 102410 82
2005-09-21 07:54:05 51°20.862 2°35.702 8.5 336 15.7 102410 82
2005-09-21 07:54:11 51°20.865 2°35.666 8.1 335 15.7 102410 82
2005-09-21 07:54:16 51°20.867 2°35.633 8.1 334 15.7 102410 82
2005-09-21 07:54:20 51°20.87 2°35.603 7.8 334 15.7 102410 82
2005-09-21 07:54:25 51°20.872 2°35.571 7.8 332 15.7 102410 82
2005-09-21 07:54:30 51°20.874 2°35.541 7.8 331 15.7 102410 82
2005-09-21 07:54:36 51°20.877 2°35.502 7.4 333 15.7 102410 82
2005-09-21 07:54:40 51°20.879 2°35.475 7.6 330 15.7 102410 81
2005-09-21 07:54:46 51°20.882 2°35.436 7.6 334 15.7 102410 81
2005-09-21 07:54:50 51°20.884 2°35.406 7.8 338 15.7 102420 81
2005-09-21 07:54:56 51°20.887 2°35.37 8.3 336 15.7 102420 81
2005-09-21 07:55:01 51°20.889 2°35.337 7.6 338 15.7 102410 81
2005-09-21 07:55:05 51°20.892 2°35.308 8 337 15.7 102410 81
2005-09-21 07:55:10 51°20.894 2°35.278 7.5 332 15.7 102410 81
2005-09-21 07:55:16 51°20.897 2°35.239 7.9 336 15.7 102410 81
2005-09-21 07:55:20 51°20.899 2°35.213 7.3 331 15.8 102410 82
2005-09-21 07:55:25 51°20.904 2°35.178 7.4 334 15.8 102410 82
2005-09-21 07:55:31 51°20.911 2°35.144 7.2 331 15.7 102410 82
2005-09-21 07:55:36 51°20.918 2°35.114 6.8 332 15.7 102410 82
2005-09-21 07:55:40 51°20.924 2°35.09 7.1 330 15.8 102410 82
2005-09-21 07:55:45 51°20.934 2°35.059 6.6 331 15.8 102410 82
2005-09-21 07:55:49 51°20.942 2°35.037 6 329 15.8 102410 82
2005-09-21 07:55:56 51°20.955 2°35.001 5.7 331 15.8 102410 82
2005-09-21 07:56:00 51°20.963 2°34.98 5.9 333 15.8 102420 82
2005-09-21 07:56:05 51°20.976 2°34.951 5.4 332 15.8 102420 82
2005-09-21 07:56:10 51°20.986 2°34.928 5.2 335 15.8 102420 82
2005-09-21 07:56:16 51°21.001 2°34.9 5.2 332 15.8 102420 82
2005-09-21 07:56:20 51°21.013 2°34.878 4.9 331 15.8 102420 81
2005-09-21 07:56:25 51°21.026 2°34.855 4.9 331 15.8 102420 81
2005-09-21 07:56:31 51°21.041 2°34.83 4.8 330 15.8 102420 81
2005-09-21 07:56:36 51°21.054 2°34.808 4.6 337 15.8 102420 81
2005-09-21 07:56:41 51°21.068 2°34.785 5.6 331 15.8 102430 81
2005-09-21 07:56:45 51°21.08 2°34.766 3.3 337 15.8 102430 81
2005-09-21 07:56:50 51°21.093 2°34.745 5.3 333 15.8 102430 81
2005-09-21 07:56:56 51°21.109 2°34.718 6 331 15.8 102430 81
2005-09-21 07:57:01 51°21.123 2°34.696 5.5 330 15.8 102420 81
2005-09-21 07:57:05 51°21.135 2°34.675 5.7 331 15.8 102420 81
2005-09-21 07:57:10 51°21.149 2°34.653 5.5 332 15.8 102420 81
2005-09-21 07:57:16 51°21.164 2°34.628 5.3 329 15.8 102420 81
2005-09-21 07:57:20 51°21.176 2°34.608 5.1 333 15.8 102420 81
2005-09-21 07:57:25 51°21.19 2°34.586 5 334 15.8 102420 81
2005-09-21 07:57:30 51°21.202 2°34.566 5.5 333 15.8 102420 81
2005-09-21 07:57:35 51°21.217 2°34.541 4.9 332 15.8 102420 81
2005-09-21 07:57:40 51°21.23 2°34.521 4.6 335 15.8 102420 81
2005-09-21 07:57:45 51°21.245 2°34.496 4.8 334 15.8 102420 81
2005-09-21 07:57:51 51°21.26 2°34.471 4.8 336 15.8 102420 80
2005-09-21 07:57:56 51°21.274 2°34.449 4.5 336 15.8 102420 80
2005-09-21 07:58:01 51°21.288 2°34.427 4.2 341 15.8 102430 80
2005-09-21 07:58:05 51°21.3 2°34.407 4.6 334 15.8 102430 80
2005-09-21 07:58:10 51°21.314 2°34.388 4.8 334 15.8 102420 80
2005-09-21 07:58:16 51°21.331 2°34.363 5 343 15.8 102420 80
2005-09-21 07:58:20 51°21.345 2°34.345 5.4 340 15.8 102420 80
2005-09-21 07:58:25 51°21.36 2°34.325 4.7 331 15.8 102420 80
2005-09-21 07:58:31 51°21.376 2°34.304 4.5 332 15.8 102430 80
2005-09-21 07:58:36 51°21.392 2°34.284 5.1 340 15.8 102430 80
2005-09-21 07:58:40 51°21.404 2°34.269 4.9 341 15.8 102430 80
2005-09-21 07:58:45 51°21.421 2°34.248 4.8 342 15.8 102430 80
2005-09-21 07:58:49 51°21.434 2°34.233 4.3 335 15.9 102420 81
2005-09-21 07:58:56 51°21.454 2°34.208 4.2 339 15.9 102420 81
2005-09-21 07:59:00 51°21.467 2°34.195 3.8 343 15.9 102420 81
2005-09-21 07:59:05 51°21.485 2°34.176 4.1 345 15.9 102420 81
2005-09-21 07:59:10 51°21.502 2°34.161 4.1 348 15.8 102420 80
2005-09-21 07:59:16 51°21.52 2°34.144 3.6 343 15.8 102420 80
2005-09-21 07:59:21 51°21.537 2°34.129 3.8 348 15.9 102420 80
2005-09-21 07:59:25 51°21.552 2°34.116 4.1 349 15.9 102420 80
2005-09-21 07:59:30 51°21.568 2°34.103 3.6 350 15.8 102430 80
2005-09-21 07:59:36 51°21.588 2°34.086 3.8 353 15.8 102430 80
2005-09-21 07:59:41 51°21.605 2°34.074 3.7 356 15.9 102430 80
2005-09-21 07:59:45 51°21.621 2°34.063 3.5 355 15.9 102430 80
2005-09-21 07:59:50 51°21.637 2°34.053 3.5 356 15.9 102430 80
2005-09-21 07:59:55 51°21.656 2°34.041 3.6 357 15.9 102430 80
2005-09-21 08:00:00 51°21.674 2°34.031 3.2 1 15.9 102430 80
2005-09-21 08:00:05 51°21.692 2°34.022 3.4 360 15.9 102430 80
2005-09-21 08:00:10 51°21.708 2°34.013 3.7 2 15.9 102430 80
2005-09-21 08:00:16 51°21.729 2°34.002 3.7 1 15.9 102430 80
2005-09-21 08:00:20 51°21.743 2°33.994 3.5 357 15.9 102430 80
2005-09-21 08:00:25 51°21.763 2°33.984 3.7 355 15.9 102430 80
2005-09-21 08:00:30 51°21.78 2°33.974 3.6 359 15.9 102430 80
2005-09-21 08:00:36 51°21.8 2°33.963 3.7 355 15.9 102430 80
2005-09-21 08:00:40 51°21.814 2°33.954 3.6 358 15.9 102430 80
2005-09-21 08:00:45 51°21.833 2°33.943 3.8 359 15.9 102430 80
2005-09-21 08:00:51 51°21.852 2°33.932 3.9 355 15.9 102430 80
2005-09-21 08:00:56 51°21.87 2°33.922 4.4 353 15.9 102430 80
2005-09-21 08:01:00 51°21.885 2°33.914 3.7 356 15.9 102430 80
2005-09-21 08:01:05 51°21.904 2°33.903 4 355 15.9 102430 80
2005-09-21 08:01:10 51°21.921 2°33.894 4.3 355 15.9 102430 79
2005-09-21 08:01:16 51°21.942 2°33.883 3.9 358 15.9 102430 79
2005-09-21 08:01:20 51°21.956 2°33.875 3.9 353 15.9 102430 80
2005-09-21 08:01:25 51°21.976 2°33.864 3.5 356 15.9 102430 80
2005-09-21 08:01:31 51°21.996 2°33.853 3.7 354 15.9 102430 80
2005-09-21 08:01:36 51°22.013 2°33.843 3.7 354 15.9 102430 80